Temperature
12 12 12 12 12 12 13 13 13 13 14 14 15 15 15 15 15 15 15 16 16 16 16 16 16 16 16 16 16 16 17 17 17 17 17 17 17 17
11 11 11 12 12 12 12 12 13 13 13 13 14 14 14 15 15 15 15 15 15 15 15 16 16 16 16 16 16 16 16 16 16 17 17 17 17 17
11 11 11 11 11 11 11 12 12 12 12 13 13 14 14 14 14 14 14 15 15 15 15 15 15 16 16 16 16 16 16 16 16 16 16 17 17 16
11 11 11 11 11 11 11 11 11 12 12 12 13 13 13 14 14 14 14 14 14 15 15 15 15 15 15 16 16 16 16 16 16 16 16 16 16 16
10 10 10 10 11 11 11 11 11 11 12 12 12 12 13 13 13 13 13 14 14 14 14 15 15 15 15 15 16 16 16 16 16 16 16 16 16 16
10 10 10 10 10 10 10 11 11 11 11 11 11 12 12 13 13 13 13 13 13 14 14 14 14 15 15 15 15 16 16 16 16 16 16 16 16 16
10 10 10 10 10 10 10 10 10 10 10 10 11 11 12 12 12 13 13 13 13 13 13 14 14 14 15 15 15 15 15 16 16 16 16 16 16 16
10 10 10 10 10 10 10 10 10 10 10 10 10 11 11 11 12 12 12 12 12 13 13 13 14 14 14 15 15 15 15 15 16 16 16 16 16 16
10 10 9 9 10 10 10 10 10 10 10 10 10 10 11 11 11 11 12 12 12 12 12 13 13 13 14 14 14 15 15 15 15 15 15 15 15 15
10 10 9 9 9 9 9 9 9 9 10 10 10 10 10 11 11 11 11 11 11 12 12 12 12 12 13 13 14 14 14 15 15 15 15 15 15 15
9 9 9 9 9 9 9 9 9 9 9 9 9 10 10 10 10 10 10 10 11 11 12 12 12 12 12 12 13 13 14 14 14 15 15 15 15 15
9 9 9 9 9 9 9 9 9 9 9 9 9 9 9 10 10 10 10 10 10 11 11 11 12 12 11 12 12 12 13 13 14 14 14 14 15 15
9 9 9 9 9 9 9 9 8 8 8 8 9 9 9 9 10 10 10 10 10 10 11 11 11 11 11 11 11 12 12 13 13 13 13 14 14 14
9 9 9 9 9 9 9 8 8 8 8 8 8 8 9 9 10 10 10 10 10 11 11 11 11 11 11 11 11 11 11 12 12 12 13 13 13 13
9 9 8 8 8 8 8 8 8 8 8 7 7 8 9 9 9 10 10 10 10 10 10 11 11 11 11 11 11 11 11 11 11 12 12 12 12 13
9 8 8 8 8 8 8 8 8 8 8 7 8 8 8 9 9 9 10 10 10 10 10 10 10 11 11 11 11 11 11 11 11 11 11 12 12 12
8 8 8 8 8 8 8 8 8 7 7 7 7 8 8 9 9 9 9 10 10 10 10 10 10 10 10 11 11 11 11 11 11 11 11 11 11 12
8 8 8 8 8 8 8 8 8 8 8 8 8 8 8 8 9 9 9 9 9 10 10 10 10 10 10 10 10 10 10 11 11 11 11 11 11 11
8 8 8 8 8 8 8 8 8 8 8 8 8 8 8 8 9 9 9 9 9 10 10 10 10 10 10 10 10 10 10 10 10 10 10 11 11 11
8 8 8 8 8 8 8 8 8 8 8 8 8 8 8 8 8 9 9 9 9 9 9 9 10 10 10 10 10 10 10 10 10 10 10 10 10 10
9 8 8 8 8 8 8 8 8 8 8 8 8 8 8 8 9 9 9 9 9 9 9 9 10 10 10 10 10 10 10 10 10 10 10 10 10 10
9 8 8 8 8 8 8 8 8 8 8 8 8 8 8 8 9 9 9 9 9 9 9 10 10 10 9 10 10 10 10 10 9 10 10 10 10 10
9 9 8 8 8 8 8 8 8 8 8 8 8 8 8 8 9 9 9 9 9 9 9 9 9 9 9 9 10 10 9 9 9 9 9 9 10 10
Wind_Speed
6 7 5 5 6 6 5 5 6 6 6 6 4 2 2 2 4 6 7 11 16 19 21 23 25 27 29 31 31 30 30 30 29 29 29 29 28 28
6 7 7 6 6 6 5 5 6 6 7 5 5 4 3 3 5 6 7 10 15 18 20 22 23 25 27 29 30 30 30 30 29 29 29 29 28 28
8 8 8 7 6 6 6 6 6 6 7 6 5 4 3 4 3 4 7 7 9 15 18 20 22 23 24 26 28 29 29 29 29 29 29 28 28 27
8 8 8 8 8 7 6 7 7 7 7 8 6 5 6 5 5 5 4 6 6 10 15 17 20 22 23 24 26 27 28 28 28 28 28 27 27 26
8 8 8 8 8 7 7 7 7 8 7 7 7 6 5 5 5 5 5 3 4 7 10 12 15 18 21 22 24 25 26 26 27 26 26 25 25 24
7 8 8 9 9 8 8 8 8 8 7 7 7 6 6 5 4 4 4 3 3 4 4 6 10 13 16 18 20 22 23 23 24 24 24 23 23 23
7 8 10 11 11 9 10 7 6 5 6 6 7 6 6 4 4 4 4 3 3 3 3 3 4 5 8 13 16 19 20 21 22 22 22 21 20 20
9 9 10 11 13 15 16 14 12 10 8 7 7 7 6 5 4 4 3 3 3 3 3 3 4 4 4 7 13 17 19 20 20 20 20 19 19 19
9 9 12 13 10 7 10 14 15 17 15 11 10 9 8 6 5 5 5 4 4 2 2 3 2 3 2 5 13 16 17 18 19 19 19 19 18 17
11 11 11 11 13 9 8 8 9 10 12 13 12 12 11 8 6 6 6 5 4 3 3 2 2 2 2 4 9 13 15 17 18 18 19 19 18 17
11 11 11 10 12 11 8 8 9 9 12 15 15 14 15 12 8 5 5 5 5 4 4 3 3 2 2 2 5 11 13 15 16 18 19 19 19 17
9 9 12 11 11 10 8 8 9 9 9 9 8 10 11 11 12 10 8 7 5 4 5 5 4 4 3 2 3 6 8 11 14 17 19 20 20 13
8 7 6 5 8 10 10 8 10 8 7 7 7 7 8 8 9 10 9 9 7 5 5 5 5 4 4 3 3 4 6 6 8 10 16 19 18 12
8 8 5 3 6 9 9 11 11 8 8 8 8 8 8 8 8 9 10 10 8 7 6 6 4 6 5 4 4 4 5 7 7 7 10 14 12 10
9 11 10 10 9 9 14 15 11 8 9 9 9 9 8 8 8 8 9 9 8 7 9 7 7 6 6 5 6 6 5 6 7 8 9 8 7 8
9 10 13 15 13 12 10 10 10 10 10 9 8 8 7 6 7 7 7 7 6 6 7 9 8 9 6 6 8 8 7 8 9 9 8 7 8 11
4 7 8 8 8 8 8 8 9 9 11 10 9 8 7 7 6 6 7 7 7 7 7 6 6 5 6 6 8 9 8 8 10 10 9 8 7 8
4 8 10 9 9 8 8 8 8 9 9 9 8 8 8 7 7 6 6 7 8 8 7 6 6 5 3 1 5 9 8 8 9 10 9 8 9 8
6 10 10 10 9 8 8 8 8 8 8 8 8 8 8 7 6 7 7 7 8 8 7 8 8 8 8 6 5 7 9 9 10 9 9 7 8 9
8 10 10 9 8 8 8 7 7 7 7 7 7 8 8 7 7 7 7 8 8 7 7 8 9 9 9 8 6 5 9 10 10 10 9 5 4 7
8 8 8 8 7 7 7 7 6 6 6 7 7 8 7 7 7 7 7 9 8 8 9 9 9 10 6 6 6 5 6 8 10 8 9 7 6 6
8 8 7 7 6 6 5 6 6 6 6 6 7 6 6 6 7 8 7 7 7 7 8 7 8 8 7 8 8 8 7 6 6 9 8 5 6 8
6 6 6 6 6 5 5 6 6 5 5 6 6 6 6 6 5 6 6 7 7 7 8 8 8 7 7 8 8 8 10 10 7 6 3 6 4 5
Wind_Direction
275 275 264 269 272 269 267 264 267 276 279 284 285 246 197 214 228 239 248 234 226 223 223 223 221 218 215 213 212 212 213 213 214 216 219 221 222 223
269 269 272 267 269 274 273 267 258 259 270 277 284 282 270 264 238 238 250 246 232 225 223 222 221 218 216 214 213 212 214 214 214 216 219 220 220 222
273 271 266 265 266 271 272 269 266 261 267 272 269 279 271 267 260 251 252 243 233 223 222 222 220 218 216 214 214 214 214 215 215 216 217 218 219 220
274 274 273 271 263 260 262 264 263 260 260 269 271 276 273 265 253 248 253 248 238 228 221 221 219 216 214 213 213 213 213 213 213 214 214 215 217 219
276 274 273 270 269 263 262 264 268 268 257 259 264 259 256 259 257 256 255 246 239 231 219 216 214 213 213 212 212 211 210 209 209 209 211 212 214 216
269 272 272 269 267 265 265 257 261 266 271 268 265 261 255 249 242 242 256 248 240 223 208 205 206 207 209 207 206 206 205 204 203 204 207 209 210 211
284 279 273 269 264 261 266 267 275 276 275 275 271 267 258 250 242 231 244 246 237 214 192 193 186 194 200 203 202 200 199 198 197 197 198 200 201 201
282 279 278 271 259 246 243 245 246 255 259 264 272 271 274 275 271 250 243 243 245 214 200 202 183 190 189 190 191 189 190 190 190 190 190 189 190 191
273 273 276 276 282 268 249 241 243 244 241 246 257 264 272 273 277 275 258 253 248 211 206 223 186 181 165 166 172 178 180 180 181 181 182 183 182 182
265 263 263 267 272 270 271 264 252 246 238 235 239 246 252 257 247 251 255 257 258 225 199 209 190 152 128 125 156 165 169 171 171 172 172 174 174 173
264 263 260 260 259 252 251 258 262 261 257 246 230 231 231 236 232 236 240 233 244 230 201 189 166 138 124 126 139 156 159 160 162 163 164 165 162 158
274 269 263 259 259 241 236 247 257 260 267 275 256 244 237 233 224 221 225 227 231 229 202 180 167 152 146 129 147 152 147 151 157 160 160 159 157 151
282 284 283 279 254 238 233 244 252 264 274 271 266 254 238 231 226 221 219 220 221 227 196 178 172 163 154 147 150 160 154 149 149 155 162 163 164 159
274 281 290 297 268 251 241 246 250 255 259 259 257 250 238 230 228 222 217 215 214 213 202 186 180 172 160 154 156 158 160 159 156 158 163 168 173 175
263 275 285 277 267 255 244 245 245 243 245 248 248 248 242 233 226 223 220 214 212 211 206 197 187 176 171 164 158 162 161 168 166 162 164 169 174 166
260 271 266 258 251 254 257 241 232 236 238 241 243 246 250 239 228 219 215 206 206 211 204 196 191 181 183 173 165 169 167 169 172 168 165 170 174 175
300 280 273 265 251 243 242 240 231 226 232 238 242 243 242 238 229 217 209 201 203 206 201 191 183 177 183 175 172 173 169 166 170 168 167 172 180 182
268 271 272 269 264 258 251 247 239 233 230 230 233 236 239 234 224 214 206 205 207 204 198 185 171 162 161 181 177 172 173 171 167 168 169 172 180 183
244 261 265 264 263 262 257 252 246 236 226 225 227 229 231 229 222 215 209 207 209 204 193 183 181 180 184 187 186 185 175 169 166 172 178 176 179 177
243 254 261 262 259 259 257 254 248 237 227 224 224 225 226 223 216 213 210 209 205 202 194 188 190 192 192 182 168 177 179 170 169 173 178 166 138 132
268 265 263 262 261 260 256 253 249 236 228 223 223 222 222 217 212 211 207 206 206 201 198 197 196 185 170 148 148 156 165 169 169 169 169 160 153 153
271 273 271 268 263 257 253 248 245 235 225 226 226 218 216 212 208 206 202 198 201 203 201 192 177 176 179 178 174 167 163 154 131 126 130 136 160 174
272 277 280 280 270 254 245 244 242 235 222 221 220 214 211 207 206 204 204 203 203 198 186 180 177 179 186 182 173 165 164 161 155 144 103 43 87 136
Height
1512 1512 1512 1512 1512 1512 1513 1513 1513 1511 1510 1509 1509 1509 1508 1508 1507 1508 1509 1509 1511 1513 1515 1518 1521 1525 1530 1534 1539 1543 1548 1552 1556 1561 1565 1569 1573 1576
1508 1508 1507 1507 1507 1507 1508 1508 1508 1507 1505 1505 1505 1505 1504 1504 1503 1503 1503 1504 1505 1506 1508 1511 1514 1517 1521 1526 1531 1536 1540 1544 1549 1554 1558 1562 1566 1570
1503 1503 1503 1503 1502 1502 1502 1502 1502 1503 1501 1501 1501 1501 1500 1500 1499 1499 1499 1499 1499 1500 1501 1504 1506 1510 1514 1518 1523 1528 1532 1537 1541 1546 1551 1555 1559 1563
1499 1498 1498 1498 1497 1497 1497 1497 1497 1497 1497 1496 1496 1496 1496 1496 1495 1494 1494 1494 1494 1494 1495 1497 1499 1503 1506 1511 1515 1520 1525 1529 1534 1539 1544 1548 1552 1556
1494 1493 1493 1492 1492 1492 1492 1491 1492 1492 1492 1491 1490 1491 1491 1491 1491 1490 1489 1489 1489 1489 1490 1491 1493 1496 1499 1504 1508 1513 1518 1522 1527 1532 1536 1541 1545 1549
1489 1488 1487 1487 1486 1486 1486 1486 1486 1486 1486 1486 1485 1486 1486 1486 1486 1485 1484 1484 1484 1484 1485 1486 1488 1490 1493 1497 1501 1506 1511 1516 1520 1525 1530 1534 1539 1543
1483 1482 1481 1481 1480 1480 1480 1480 1481 1480 1480 1480 1480 1481 1481 1481 1481 1481 1480 1480 1480 1480 1480 1481 1482 1484 1487 1490 1495 1499 1504 1509 1514 1519 1524 1528 1533 1537
1476 1475 1474 1474 1474 1473 1473 1474 1474 1474 1474 1475 1475 1475 1476 1476 1477 1477 1476 1476 1476 1476 1477 1477 1478 1480 1482 1485 1488 1493 1498 1503 1508 1513 1517 1522 1526 1530
1470 1468 1468 1468 1468 1468 1467 1467 1467 1467 1468 1468 1468 1468 1470 1471 1472 1472 1472 1472 1472 1472 1473 1473 1475 1476 1478 1481 1484 1488 1492 1497 1502 1507 1512 1516 1521 1525
1464 1462 1461 1461 1461 1461 1460 1460 1460 1460 1460 1460 1460 1461 1463 1465 1466 1467 1467 1467 1467 1468 1469 1469 1470 1472 1474 1477 1480 1483 1487 1492 1496 1501 1506 1511 1515 1520
1458 1457 1456 1455 1454 1454 1454 1453 1453 1453 1454 1454 1454 1454 1456 1458 1460 1461 1462 1462 1462 1463 1465 1466 1467 1469 1471 1473 1476 1480 1483 1487 1492 1497 1501 1506 1510 1514
1453 1452 1451 1449 1448 1448 1447 1447 1446 1446 1447 1447 1448 1448 1449 1450 1452 1454 1455 1457 1457 1458 1460 1462 1463 1466 1468 1470 1473 1476 1479 1483 1487 1492 1496 1501 1505 1509
1448 1446 1445 1444 1442 1441 1441 1440 1439 1440 1440 1440 1440 1441 1442 1443 1444 1446 1448 1450 1452 1453 1455 1457 1459 1461 1464 1466 1469 1472 1476 1479 1483 1487 1492 1496 1500 1504
1442 1440 1439 1437 1436 1435 1434 1433 1433 1433 1433 1433 1433 1434 1435 1436 1438 1439 1441 1444 1446 1448 1450 1453 1454 1456 1459 1461 1464 1468 1472 1476 1480 1484 1488 1492 1496 1501
1436 1434 1433 1431 1430 1428 1427 1427 1426 1426 1425 1426 1426 1427 1429 1430 1432 1434 1435 1438 1440 1443 1445 1448 1450 1452 1455 1457 1459 1463 1467 1471 1476 1480 1484 1488 1492 1497
1430 1428 1426 1424 1423 1421 1420 1419 1419 1418 1419 1419 1420 1421 1423 1424 1425 1427 1429 1432 1434 1437 1440 1443 1445 1448 1450 1453 1457 1459 1463 1467 1471 1476 1481 1485 1489 1494
1424 1422 1420 1418 1416 1414 1413 1412 1412 1412 1412 1412 1414 1415 1416 1418 1419 1421 1424 1426 1429 1431 1434 1437 1441 1444 1447 1449 1452 1455 1459 1463 1467 1472 1477 1481 1485 1490
1418 1415 1413 1411 1410 1408 1407 1406 1406 1405 1406 1406 1407 1409 1410 1412 1414 1416 1418 1420 1423 1426 1429 1432 1435 1439 1443 1446 1449 1451 1455 1459 1463 1468 1473 1478 1482 1487
1412 1409 1407 1405 1403 1402 1401 1400 1399 1399 1400 1400 1401 1403 1404 1406 1408 1410 1412 1415 1417 1420 1424 1427 1430 1434 1437 1440 1444 1448 1451 1455 1460 1465 1469 1474 1479 1484
1406 1403 1401 1399 1397 1396 1395 1394 1393 1393 1394 1395 1396 1397 1399 1401 1402 1405 1407 1410 1412 1415 1419 1422 1425 1428 1432 1436 1440 1444 1448 1452 1456 1461 1466 1472 1477 1481
1400 1398 1396 1394 1392 1390 1389 1388 1388 1388 1388 1389 1390 1391 1393 1395 1398 1400 1402 1405 1408 1411 1414 1417 1420 1425 1429 1433 1437 1439 1444 1449 1453 1458 1463 1468 1472 1476
1395 1392 1391 1389 1387 1386 1384 1384 1383 1383 1384 1384 1386 1387 1389 1391 1393 1395 1398 1401 1404 1407 1410 1413 1417 1420 1424 1428 1431 1436 1440 1445 1450 1455 1460 1464 1466 1470
1389 1387 1386 1384 1383 1382 1380 1380 1379 1379 1380 1380 1381 1383 1385 1387 1389 1392 1394 1397 1400 1403 1406 1409 1412 1416 1420 1424 1428 1432 1436 1441 1445 1451 1456 1460 1465 1469